Le nostre stazioni meteo in Italia

Pubblicità
Il mio iltempo24.it
Capo Bellavista, Italia (16550): Temperatura & dewpoint: 09.11.2018 08:00:00 - 15.11.2018 08:00:00 (CET)Capo Bellavista, Italia (16550): velocità del vento: 09.11.2018 08:00:00 - 15.11.2018 08:00:00 (CET)Capo Bellavista, Italia (16550): direzione del vento: 09.11.2018 08:00:00 - 15.11.2018 08:00:00 (CET)Capo Bellavista, Italia (16550): reduced air pressure: 09.11.2018 08:00:00 - 15.11.2018 08:00:00 (CET)Capo Bellavista, Italia (16550): visibility: 09.11.2018 08:00:00 - 15.11.2018 08:00:00 (CET)Capo Bellavista, Italia (16550): ore di luce: 09.11.2018 08:00:00 - 15.11.2018 08:00:00 (CET)
Data & Tempo tt [°C] td [°C] ff [km/h] ff [kn] dd ppp [hPa] vv [km] sd [min]
15.11.2018 08:00:00 15,0 12,3 4 2 N 1022,2 25 0
15.11.2018 07:00:00 15,0 13,0 8 4 NNO 1022,1 25 0
15.11.2018 06:00:00 15,2 13,4 11 6 NNO 1022,5 20 -
15.11.2018 05:00:00 15,4 13,1 11 6 NO 1022,8 20 -
15.11.2018 04:00:00 16,0 15,0 8 4 O 1022,9 20 -
15.11.2018 03:00:00 16,4 14,8 5 3 SSO 1023,5 20 -
15.11.2018 02:00:00 16,8 14,6 8 4 SSO 1023,8 20 -
15.11.2018 01:00:00 16,8 14,6 5 3 SSO 1023,8 20 -
15.11.2018 00:00:00 17,0 15,8 5 3 O 1024,0 20 -
14.11.2018 23:00:00 17,2 14,7 5 3 SSO 1024,2 20 -
14.11.2018 22:00:00 17,2 15,0 4 2 SSO 1024,4 20 -
14.11.2018 21:00:00 17,4 15,2 5 3 SSO 1024,6 20 -
14.11.2018 20:00:00 17,8 15,3 4 2 SO 1024,7 20 -
14.11.2018 19:00:00 17,8 15,0 8 4 S 1024,7 20 -
14.11.2018 18:00:00 17,8 15,3 5 3 S 1024,8 20 -
14.11.2018 17:00:00 17,8 15,0 0 0 N 1024,7 25 0
14.11.2018 16:00:00 20,2 15,2 4 2 SO 1024,8 25 36
14.11.2018 15:00:00 21,0 15,4 4 2 NO 1024,6 25 60
14.11.2018 14:00:00 21,2 15,7 5 3 SSE 1025,5 25 60
14.11.2018 13:00:00 20,4 15,1 5 3 SE 1026,1 30 60
14.11.2018 12:00:00 19,2 14,8 8 4 ESE 1026,7 30 60
14.11.2018 11:00:00 18,6 13,8 8 4 E 1026,8 30 60
14.11.2018 10:00:00 18,2 14,0 4 2 E 1026,8 20 60
14.11.2018 09:00:00 17,4 13,5 0 0 N 1026,6 20 60
14.11.2018 08:00:00 15,2 11,8 9 5 O 1026,6 20 12
14.11.2018 07:00:00 15,4 11,6 8 4 O 1026,6 20 -
14.11.2018 06:00:00 15,8 11,8 5 3 SSO 1026,6 16 -
14.11.2018 05:00:00 15,8 12,4 4 2 O 1026,7 16 -
14.11.2018 04:00:00 16,2 11,8 9 5 NO 1026,8 20 -
14.11.2018 03:00:00 16,2 12,4 9 5 ONO 1027,0 20 -
14.11.2018 02:00:00 16,4 12,0 9 5 SO 1027,0 16 -
14.11.2018 01:00:00 16,4 13,0 5 3 SSO 1027,1 16 -
14.11.2018 00:00:00 16,4 13,9 9 5 O 1027,6 16 -
13.11.2018 23:00:00 16,4 14,6 11 6 O 1027,8 16 -
13.11.2018 22:00:00 16,4 15,1 11 6 O 1027,8 10 -
13.11.2018 21:00:00 17,6 16,8 9 5 OSO 1027,6 8 -
13.11.2018 20:00:00 18,0 17,4 9 5 SO 1027,5 8 -
13.11.2018 19:00:00 18,4 18,1 9 5 SSO 1027,2 8 0
13.11.2018 18:00:00 18,4 18,1 11 6 SSO 1027,2 12 -
13.11.2018 17:00:00 19,0 18,2 8 4 S 1026,8 14 0
13.11.2018 16:00:00 20,0 18,0 9 5 S 1026,7 14 30
13.11.2018 15:00:00 20,0 17,6 9 5 S 1026,7 14 0
13.11.2018 14:00:00 19,8 17,8 8 4 S 1026,9 16 6
13.11.2018 13:00:00 19,2 17,5 5 3 NNE 1027,6 16 0
13.11.2018 12:00:00 19,2 17,5 5 3 S 1027,7 16 0
13.11.2018 11:00:00 19,4 16,8 5 3 S 1027,6 16 30
13.11.2018 10:00:00 18,6 16,0 4 2 SSO 1027,3 10 24
13.11.2018 09:00:00 17,0 15,4 4 2 O 1027,5 25 0
13.11.2018 08:00:00 16,6 14,7 5 3 ONO 1027,0 20 0
13.11.2018 07:00:00 16,4 14,2 5 3 O 1026,8 25 -
13.11.2018 06:00:00 16,0 13,4 5 3 ONO 1026,9 30 -
13.11.2018 05:00:00 16,0 13,7 5 3 NO 1026,9 25 -
13.11.2018 04:00:00 16,0 13,4 4 2 OSO 1026,9 20 -
13.11.2018 03:00:00 16,0 13,4 4 2 NO 1026,8 25 -
13.11.2018 02:00:00 16,0 13,4 4 2 ONO 1026,7 30 -
13.11.2018 01:00:00 16,4 14,5 8 4 ONO 1026,2 25 -
13.11.2018 00:00:00 15,8 13,2 8 4 OSO 1026,1 30 -
12.11.2018 23:00:00 15,8 14,2 11 6 ONO 1026,0 25 -
12.11.2018 22:00:00 16,0 14,4 13 7 ONO 1026,0 20 -
12.11.2018 21:00:00 16,4 14,8 11 6 ONO 1025,9 25 -
12.11.2018 20:00:00 17,0 15,8 9 5 ONO 1025,6 25 -
12.11.2018 19:00:00 17,4 16,5 0 0 N 1025,9 30 -
12.11.2018 18:00:00 18,2 16,7 8 4 S 1024,8 30 0
12.11.2018 17:00:00 18,8 16,4 4 2 S 1024,8 30 12
12.11.2018 16:00:00 20,2 16,2 0 0 N 1024,7 30 60
12.11.2018 15:00:00 21,4 15,9 4 2 S 1024,6 30 60
12.11.2018 14:00:00 21,6 15,1 4 2 S 1024,6 30 60
12.11.2018 13:00:00 21,2 14,6 4 2 S 1024,7 30 60
12.11.2018 12:00:00 19,8 14,1 8 4 S 1025,7 30 60
12.11.2018 11:00:00 19,0 14,2 0 0 N 1025,9 30 60
12.11.2018 10:00:00 17,0 11,3 0 0 N 1026,0 30 60
12.11.2018 09:00:00 14,8 10,2 11 6 NO 1025,3 20 -
12.11.2018 08:00:00 14,2 10,4 13 7 ONO 1025,0 20 -
12.11.2018 07:00:00 14,2 10,6 15 8 ONO 1024,2 15 0
12.11.2018 06:00:00 14,2 10,8 15 8 ONO 1024,1 12 -
12.11.2018 05:00:00 14,6 11,2 15 8 ONO 1023,9 20 -
12.11.2018 04:00:00 15,0 12,1 11 6 ONO 1023,8 20 -
12.11.2018 03:00:00 15,0 12,3 9 5 O 1023,6 20 -
12.11.2018 02:00:00 15,0 12,5 9 5 O 1023,5 20 -
12.11.2018 01:00:00 15,0 13,7 8 4 ONO 1023,2 20 -
12.11.2018 00:00:00 15,2 14,2 8 4 O 1023,1 20 -
11.11.2018 23:00:00 16,4 15,4 9 5 SSO 1023,0 20 -
11.11.2018 22:00:00 16,6 15,6 5 3 SO 1022,8 20 -
11.11.2018 21:00:00 16,6 15,6 4 2 SO 1022,7 20 -
11.11.2018 20:00:00 16,4 15,9 9 5 O 1022,0 20 -
11.11.2018 19:00:00 17,4 16,1 9 5 OSO 1021,9 20 -
11.11.2018 18:00:00 17,6 15,6 9 5 S 1021,4 20 -
11.11.2018 17:00:00 18,0 15,4 9 5 SSO 1020,9 20 -
11.11.2018 16:00:00 20,4 15,8 8 4 S 1020,7 20 60
11.11.2018 15:00:00 21,0 14,9 4 2 O 1020,8 20 60
11.11.2018 14:00:00 21,2 15,5 5 3 SSE 1020,6 20 -
11.11.2018 13:00:00 21,0 14,7 4 2 SSE 1020,4 20 60
11.11.2018 12:00:00 20,6 14,7 4 2 NO 1019,6 20 -
11.11.2018 11:00:00 19,0 14,5 8 4 ESE 1019,6 20 -
11.11.2018 10:00:00 17,8 13,1 4 2 E 1019,4 20 60
11.11.2018 09:00:00 15,0 11,0 8 4 ONO 1019,1 20 60
11.11.2018 08:00:00 15,0 10,6 8 4 ONO 1018,5 20 -
11.11.2018 07:00:00 14,8 11,0 9 5 NO 1017,8 20 -
11.11.2018 06:00:00 14,8 11,4 13 7 ONO 1017,3 20 -
11.11.2018 05:00:00 15,0 11,0 13 7 ONO 1016,9 20 -
11.11.2018 04:00:00 15,0 10,6 13 7 NO 1016,9 20 -
11.11.2018 03:00:00 15,2 10,8 8 4 ONO 1016,9 20 -
11.11.2018 02:00:00 15,2 10,2 5 3 NNO 1016,9 20 -
11.11.2018 01:00:00 15,6 11,2 13 7 NO 1016,8 20 -
11.11.2018 00:00:00 15,4 11,0 9 5 NO 1016,5 20 -
10.11.2018 23:00:00 15,0 10,6 15 8 NO 1015,9 20 -
10.11.2018 22:00:00 16,2 14,2 11 6 NNE 1015,7 20 -
10.11.2018 21:00:00 16,0 12,2 5 3 N 1015,0 20 -
10.11.2018 20:00:00 16,0 13,8 9 5 ONO 1014,9 20 -
10.11.2018 19:00:00 17,0 15,4 11 6 N 1014,5 20 0
10.11.2018 18:00:00 17,2 15,5 22 12 NE 1013,8 20 -
10.11.2018 17:00:00 17,2 15,9 18 10 NE 1013,5 20 12
10.11.2018 16:00:00 18,0 15,6 21 11 NE 1012,8 20 60
10.11.2018 15:00:00 18,0 15,6 26 14 NE 1012,9 25 60
10.11.2018 14:00:00 18,0 14,5 24 13 NNE 1013,3 25 60
10.11.2018 13:00:00 18,0 14,5 22 12 NE 1013,4 25 60
10.11.2018 12:00:00 17,8 13,9 24 13 NNE 1013,8 25 60
10.11.2018 11:00:00 17,6 13,5 24 13 NNE 1013,9 25 36
10.11.2018 10:00:00 17,0 13,1 24 13 NNE 1013,9 20 12
10.11.2018 09:00:00 16,2 12,2 16 9 N 1013,3 30 0
10.11.2018 08:00:00 15,6 13,3 13 7 N 1013,2 25 0
10.11.2018 07:00:00 15,8 14,2 15 8 NNE 1013,3 25 0
10.11.2018 06:00:00 16,0 10,5 16 9 N 1013,2 20 -
10.11.2018 05:00:00 15,4 11,0 11 6 NNO 1013,3 20 -
10.11.2018 04:00:00 15,4 12,1 13 7 NNO 1013,8 20 -
10.11.2018 03:00:00 15,2 13,2 15 8 NO 1014,1 20 -
10.11.2018 02:00:00 15,2 13,6 15 8 NO 1014,6 20 -
10.11.2018 01:00:00 16,0 14,4 18 10 NNE 1014,7 20 -
10.11.2018 00:00:00 15,8 13,2 15 8 N 1014,8 20 -
09.11.2018 23:00:00 15,8 14,2 16 9 NO 1015,0 20 -
09.11.2018 22:00:00 16,2 15,3 11 6 NO 1014,9 20 -
09.11.2018 21:00:00 16,2 15,3 11 6 NO 1014,9 20 -
09.11.2018 20:00:00 16,4 15,8 9 5 NO 1014,8 20 -
09.11.2018 19:00:00 16,8 16,2 11 6 ONO 1014,9 20 -
09.11.2018 18:00:00 17,4 15,0 5 3 S 1014,8 20 0
09.11.2018 17:00:00 18,2 11,2 0 0 N 1014,8 20 36
09.11.2018 16:00:00 21,2 15,0 4 2 S 1014,5 30 0
09.11.2018 15:00:00 21,2 14,4 4 2 O 1014,6 20 60
09.11.2018 14:00:00 - - - - - - - -
09.11.2018 13:00:00 19,4 14,0 11 6 S 1016,3 30 60
09.11.2018 12:00:00 19,4 14,7 8 4 SO 1017,1 30 60
09.11.2018 11:00:00 18,0 14,2 11 6 SSO 1017,6 30 60
09.11.2018 10:00:00 16,6 13,4 8 4 SO 1017,7 20 54
09.11.2018 09:00:00 15,0 10,6 8 4 O 1017,8 30 60
09.11.2018 08:00:00 15,0 13,4 11 6 ONO 1017,9 30 0

tt = Temperatura
td = dewpoint
ff = velocità del vento
dd = direzione del vento
ppp = reduced air pressure
vv = visibility
sd = ore di luce

Stazioni seguenti

WeatherPro
AMSI
MeteoEarth